Location: *
(57.8420°S, 159.8600°W)
Time: 04:05:52
(UTC+00:00)

Okean O Rocket - Pass Details

Date: 18 May 2021
Orbit: 622 x 645 km, 98.2° (Epoch: 23 June)

Event Time Altitude Azimuth Distance (km) Brightness Sun altitude
Exits shadow 05:18:39 16° 16° (NNE) 1,703 3.6 -22.2°
Drops below altitude 10° 05:19:38 10° 11° (N) 2,063 4.1 -22.3°
Sets 05:21:56 0° 3° (N) 2,967 5.0 -22.6°
